INTELSAT 34 (IS-34)

Last updated on Sat Nov 01 2025 00:02:48 GMT+0000 (Coordinated Universal Time)

1 40874U 15039A 25304.31531390 -.00000275 00000+0 00000+0 0 9993 2 40874 0.0162 273.2958 0000280 177.7745 6.8326 1.00271663 37335
UTC large
Height (km)
Speed (km/s)
/
Latitude / Longitude
Inclination (degrees)
Orbital Period (minutes)
Azimuth
Elevation
Range (km)
Doppler Factor

Next 0 passes for location: London (51.5072 / 0.1276)

Sorry there are no passes over London.